Location: Hillsman's Observatory
(38.8566°N, 93.9398°W)
Time: 21:10:08
(UTC-06:00)

Tiangong 1 - Visible Passes

Search period start: 21 February 2018 00:00
Search period end: 03 March 2018 00:00
Orbit: 247 x 269 km, 42.8° (Epoch: 21 February)

Date Brightness Start Highest point End Pass type
(mag) Time Alt. Az. Time Alt. Az. Time Alt. Az.
28 Feb 2.8 19:35:42 10° SW 19:36:26 17° SSW 19:36:26 17° SSW visible
01 Mar 1.2 19:27:29 10° SW 19:29:12 39° SSW 19:29:12 39° SSW visible
02 Mar 0.0 19:19:10 10° WSW 19:21:25 83° SSE 19:21:37 69° E visible
